www.pogodaiklimat.ru

Погода и климат >> Архив погоды >> Финляндия >> Лаппеенранта


ПОГОДА в Лаппеенранте

  • Прогноз погоды в Лаппеенранте
  • Монитор погоды в Лаппеенранте

АРХИВ ПОГОДЫ в Лаппеенранте

Время (UTC), дата Ветер
(напр.,м/с)
 
Видим.   Явления Облачность Т
(С)
Тd
(С)
f
(%)
Тe
(С)
Тes
(С)
Комфортность P
(гПа)
Po
(гПа)
Тmin
(С)
Tmax
(С)
R
(мм)
R24
(мм)
S
(см)
10 18.06 СЗ 4 45 км ясно +24.1 +8.6 37 +25 +34 комфорт 1011.6 999.6
11 18.06 СЗ 4-10
{10}
50 км 1/1 2000 м
[]
+24.7 +9.0 37 +25 +34 комфорт 1011.7 999.6
12 18.06 З 4-10
{10}
45 км 8/8 2000 м
[]
+25.8 +9.0 35 +26 +28 жарко 1011.8 999.8
13 18.06 З 4-8
{10}
45 км 4/0 2000 м
[]
+26.1 +9.0 34 +26 +33 жарко 1011.6 999.6
14 18.06 З 3 50 км 3/3 2000 м
[]
+26.0 +9.8 36 +27 +31 жарко 1011.5 999.5
15 18.06 З 4-10
{10}
50 км 4/4 2000 м
[]
+26.0 +9.2 35 +26 +28 жарко 1011.5 999.5
16 18.06 З 4-10
{10}
50 км ясно +25.9 +9.3 35 +26 +28 жарко 1011.3 999.3
17 18.06 СЗ 3-6
{9}
50 км ясно +25.4 +9.0 35 +26 +27 жарко 1011.3 999.3
18 18.06 СЗ 3-6
{9}
50 км ясно +24.3 +9.7 40 +25 +26 комфорт 1011.6 999.5 +19.7 +26.6
19 18.06 З 3 50 км ясно +23.4 +9.4 41 +25 +25 комфорт 1011.9 999.8
20 18.06 З 2 50 км ясно +21.6 +9.7 47 +23 +23 комфорт 1012.4 1000.2
21 18.06 З 3-6
{6}
50 км ясно +21.1 +9.3 47 +22 +22 комфорт 1012.7 1000.5
22 18.06 З 1-4
{6}
50 км ясно +19.0 +8.6 51 +21 +21 комфорт 1013.0 1000.8
23 18.06 З 2 50 км ясно +17.6 +8.6 56 +18 +18 1013.5 1001.1
00 19.06 З 1-3
{6}
50 км ясно +17.0 +9.4 61 +18 +18 1013.9 1001.5
01 19.06 З 2 40 км ясно +15.9 +9.5 66 +16 +16 1014.0 1001.6
02 19.06 З 3-5
{6}
50 км ясно +17.2 +10.0 63 +17 +17 1014.1 1001.7
03 19.06 З 2-3
{5}
50 км ясно +17.3 +11.0 66 +18 +19 1014.1 1001.8
04 19.06 З 2 45 км ясно +17.1 +11.8 71 +17 +20 1014.2 1001.8
05 19.06 ЮЗ 2 50 км 3/3
[]
+18.5 +12.8 69 +20 +23 1014.1 1001.7
06 19.06 ЮЗ 2-5
{6}
50 км 3/3
[]
+20.5 +11.7 57 +23 +28 комфорт 1013.9 1001.7 +15.5 +24.3
07 19.06 З 2-4
{6}
50 км 9/0 2000 м
[]
+21.1 +11.5 54 +23 +24 комфорт 1013.7 1001.5
08 19.06 ЮЗ 2-8
{8}
50 км ясно +23.3 +11.9 49 +26 +38 жарко 1013.4 1001.3
09 19.06 Ю 3-7
{9}
45 км ясно +24.0 +10.6 43 +25 +36 комфорт 1013.1 1001.0
10 19.06 ЮЗ 4 45 км 8/8
[]
+24.1 +9.7 40 +25 +27 комфорт 1012.7 1000.6
11 19.06 Ю 4 50 км 5/3 1500 м
[]
+24.1 +12.0 47 +26 +31 жарко 1012.5 1000.5
12 19.06 Ю 3-9
{9}
45 км 4/4
[]
+24.2 +11.7 46 +26 +32 жарко 1012.5 1000.4
13 19.06 Ю 3-8
{11}
45 км 1/0
[]
+24.7 +11.0 42 +26 +34 жарко 1012.3 1000.2
14 19.06 ЮЗ 4 45 км 4/4
[]
+23.8 +11.4 46 +25 +28 комфорт 1011.9 999.8
15 19.06 ЮЗ 3-8
{11}
35 км 3/3 2000 м
[]
+23.9 +11.0 44 +25 +28 комфорт 1012.1 1000.1
16 19.06 С 2 50 км 1/1 1500 м
[]
+20.7 +11.8 57 +23 +26 комфорт 1012.6 1000.4
17 19.06 СВ 2-5
{5}
50 км 3/0 1500 м
[]
+21.3 +12.0 55 +23 +24 комфорт 1012.4 1000.3
18 19.06 С 1-2
{5}
50 км 9/9
[]
+19.2 +13.7 70 +22 +22 комфорт 1012.6 1000.3 +19.2 +25.2
19 19.06 Ю 1 50 км 3/3
[]
+18.6 +13.5 72 +20 +20 1012.4 1000.1
20 19.06 Ю 2-2
{3}
50 км ясно +17.7 +13.3 75 +18 +18 1012.4 1000.0
21 19.06 Ю 1-3
{3}
45 км ясно +16.9 +12.8 77 +18 +18 1012.6 1000.3
22 19.06 ЮЗ 2-4
{5}
45 км ясно +16.6 +11.3 71 +17 +17 1012.8 1000.4
23 19.06 ЮЗ 1-3
{4}
50 км ясно +15.9 +10.2 69 +17 +17 1013.0 1000.6
00 20.06 ЮЗ 2-3
{3}
50 км ясно +15.1 +10.3 73 +15 +15 1013.2 1000.8
01 20.06 ЮЗ 2-4
{4}
50 км ясно +14.8 +10.5 75 +15 +15 1013.4 1001.0
02 20.06 ЮЗ 1-2
{3}
50 км ясно +14.3 +11.0 81 +15 +15 1013.5 1001.0
03 20.06 Ю 1-2
{3}
45 км ясно +15.2 +11.6 79 +16 +17 1013.6 1001.1
04 20.06 Ю 1-2
{2}
45 км ясно +16.2 +12.1 77 +17 +20 1013.5 1001.1
05 20.06 ЮЗ 1 45 км ясно +18.6 +12.9 69 +20 +26 1013.4 1001.1
06 20.06 ЮЗ 1-3
{3}
45 км ясно +20.5 +12.8 61 +24 +32 комфорт 1013.3 1001.1 +14.0 +20.6
07 20.06 Ю 2 50 км ясно +22.0 +11.8 52 +24 +34 комфорт 1013.1 1000.9
08 20.06 ЮЗ 2 50 км ясно +23.4 +11.1 46 +26 +37 жарко 1013.0 1000.8
09 20.06 Ю 2-5
{5}
45 км ясно +24.5 +11.8 45 +26 +39 жарко 1012.8 1000.7
10 20.06 ЮЗ 2 50 км 5/5 1500 м
[]
+24.2 +12.2 47 +26 +33 жарко 1012.8 1000.7
11 20.06 Ю 2 45 км 4/4 1500 м
[]
+25.6 +11.6 42 +27 +35 жарко 1012.6 1000.6
12 20.06 Ю 2-5
{8}
50 км 4/4 1500 м
[]
+25.9 +12.2 43 +27 +35 жарко 1012.3 1000.3
13 20.06 Ю 3-5
{6}
45 км 3/1 1500 м
[]
+26.2 +11.6 40 +27 +33 жарко 1012.1 1000.1
14 20.06 Ю 2 50 км ясно +26.3 +10.8 38 +27 +35 жарко 1011.7 999.8
15 20.06 Ю 3-6
{7}
45 км ясно +25.8 +9.0 35 +26 +30 жарко 1011.3 999.3
16 20.06 Ю 2 50 км ясно +25.4 +4.9 27 +25 +28 комфорт 1011.1 999.1
17 20.06 Ю 1 50 км ясно +24.7 +7.1 32 +25 +26 комфорт 1010.8 998.8
18 20.06 Ю 2-2
{3}
40 км 1/1
[]
+22.7 +9.8 44 +24 +25 комфорт 1011.1 998.9 +20.5 +26.8
19 20.06 Ю 2-4
{4}
50 км 9/0
[]
+22.1 +9.8 46 +24 +24 комфорт 1011.1 999.0
20 20.06 Ю 2 50 км 8/8
[]
+20.7 +10.5 52 +23 +23 комфорт 1011.1 998.9
21 20.06 ЮВ 3-4
{4}
50 км 9/8
[]
+20.1 +10.0 52 +22 +22 комфорт 1011.1 998.9
22 20.06 Ю 2 50 км 1/1
[]
+19.2 +10.3 56 +21 +21 комфорт 1011.0 998.8
23 20.06 Ю 2-3
{4}
50 км 8/8
[]
+18.6 +10.7 60 +20 +20 1010.7 998.4
00 21.06 Ю 3-4
{4}
50 км ясно +17.9 +11.6 67 +18 +18 1010.5 998.2
01 21.06 Ю 2 45 км ясно +17.4 +12.2 72 +18 +18 1010.6 998.2
02 21.06 ЮВ 3-4
{4}
50 км 6/6
[]
+17.9 +12.8 72 +18 +18 1010.3 998.0
03 21.06 Ю 2-3
{4}
50 км 4/4
[]
+18.4 +13.9 75 +19 +20 1010.0 997.8
04 21.06 ЮВ 2-4
{4}
45 км слаб. ливневой дождь 8/1 1500 м
[]
+19.0 +14.6 76 +21 +22 комфорт 1009.5 997.3
05 21.06 Ю 2-3
{4}
50 км 4/4 2000 м
[]
+19.4 +14.9 75 +22 +24 комфорт 1009.5 997.3
06 21.06 Ю 2-4
{4}
40 км 1/1
[]
+21.5 +16.3 72 +25 +31 комфорт 1009.5 997.3 +17.2 +22.7
07 21.06 Ю 2 50 км 5/5
[]
+23.4 +15.6 62 +28 +33 душно 1009.1 997.1
08 21.06 Ю 3 45 км 3/3
[]
+22.7 +16.5 68 +27 +34 душно 1009.1 997.0
09 21.06 Ю 3-6
{6}
45 км ясно +24.2 +15.1 57 +27 +38 жарко 1008.9 996.8
10 21.06 Ю 3 45 км ясно +26.0 +15.4 52 +29 +41 душно 1008.7 996.7
11 21.06 ЮЗ 2 50 км ясно +26.8 +14.4 47 +29 +43 жарко 1008.3 996.4
12 21.06 Ю 3-8
{8}
40 км ясно +27.1 +13.8 44 +29 +39 жарко 1008.0 996.1
13 21.06 Ю 3 45 км ясно +27.0 +14.9 47 +30 +38 душно 1007.9 996.0
14 21.06 ЮЗ 3 50 км ясно +26.8 +14.9 48 +29 +36 жарко 1007.7 995.8
15 21.06 Ю 2-7
{9}
45 км ясно +26.2 +14.8 49 +29 +34 жарко 1007.4 995.5
16 21.06 ЮЗ 4-11
{12}
50 км ясно +26.1 +13.6 46 +28 +30 жарко 1007.3 995.4
17 21.06 Ю 3 50 км ясно +25.2 +14.0 50 +28 +29 жарко 1007.1 995.1
18 21.06 Ю 3-9
{11}
50 км ясно +23.8 +14.9 57 +27 +27 жарко 1007.0 995.0 +21.3 +27.9
19 21.06 ЮЗ 2-5
{7}
50 км ясно +22.5 +15.3 64 +26 +26 жарко 1007.4 995.3
20 21.06 ЮЗ 2 45 км ясно +21.0 +15.2 69 +25 +25 комфорт 1007.6 995.5
21 21.06 ЮЗ 2-5
{7}
45 км ясно +19.6 +15.1 75 +22 +22 комфорт 1008.2 995.9
22 21.06 ЮЗ 2 50 км ясно +18.5 +14.6 78 +20 +20 1008.4 996.2
23 21.06 ЮЗ 3 50 км ясно +17.4 +13.8 79 +17 +17 1008.7 996.4
00 22.06 ЮЗ 2-4
{5}
45 км 4/4 1000 м
[]
+16.4 +13.0 80 +17 +17 1008.9 996.6
01 22.06 З 2 50 км ясно +15.8 +12.5 81 +16 +16 1008.8 996.4
02 22.06 З 2 50 км 1/0
[]
+17.3 +12.4 73 +18 +18 1009.1 996.8
03 22.06 З 1-4
{5}
50 км 1/1 1000 м
[]
+17.0 +12.6 75 +18 +19 1009.5 997.2
04 22.06 З 2 45 км ясно +17.2 +12.3 73 +18 +20 1009.8 997.5
05 22.06 З 1-4
{6}
50 км 3/0
[]
+18.2 +12.0 67 +20 +22 1010.0 997.7
06 22.06 З 2-3
{4}
50 км 5/5 2000 м
[]
+19.0 +12.0 64 +20 +24 1010.1 997.8 +15.7 +23.8
07 22.06 ЮЗ 2-4
{5}
50 км 5/5 2000 м
[]
+19.7 +11.7 60 +22 +23 комфорт 1010.0 997.8
08 22.06 ЮЗ 3 50 км 3/1 1000 м
[]
+21.0 +8.7 45 +23 +31 комфорт 1009.8 997.6
09 22.06 ЮЗ 3-6
{11}
20 км слаб. дождь 9/9 1000 м
[]
+16.7 +11.7 72 +16 +18 1010.8 998.4
10 22.06 ЮЗ 2-4
{9}
13 км ливневой дождь 9/9 1000 м
[]
+14.8 +13.6 93 +14 +16 1011.6 999.1 3
11 22.06 ЮЗ 4-9
{9}
45 км ясно +18.0 +12.1 68 +18 +26 1011.2 998.9
12 22.06 ЮЗ 3-9
{10}
50 км 9/9 1000 м
[]
+19.7 +9.0 50 +21 +22 комфорт 1011.2 998.9
13 22.06 З 4 45 км 3/3 1500 м
[]
+20.8 +6.9 41 +22 +27 комфорт 1011.6 999.4
14 22.06 З 4 50 км 3/0 2000 м
[]
+20.7 +6.1 39 +22 +26 комфорт 1011.8 999.6
15 22.06 З 4-11
{15}
45 км 5/5 1500 м
[]
+20.0 +6.1 40 +21 +22 комфорт 1012.3 1000.1
16 22.06 З 4 50 км 3/3 1500 м
[]
+19.6 +5.5 40 +20 +22 1012.8 1000.5
17 22.06 З 5 50 км 8/8 1500 м
[]
+19.3 +7.0 45 +20 +20 1013.4 1001.1
18 22.06 СЗ 3-10
{14}
50 км 3/3 1000 м
[]
+16.7 +6.7 52 +17 +17 1014.9 1002.5 +14.5 +21.9 3
19 22.06 СЗ 3 50 км ясно +15.9 +5.7 51 +16 +16 1015.7 1003.2
20 22.06 З 2-4
{8}
50 км ясно +14.5 +5.8 56 +14 +14 1016.3 1003.8
21 22.06 ЮЗ 3-4
{4}
50 км ясно +12.9 +6.3 64 +12 +12 1016.9 1004.3
22 22.06 ЮЗ 2-5
{5}
50 км ясно +12.3 +6.4 67 +12 +12 1017.4 1004.7
23 22.06 ЮЗ 2 50 км ясно +11.4 +6.3 71 +10 +10 1018.1 1005.4
00 23.06 З 2-4
{4}
50 км ясно +10.8 +6.3 74 +10 +10 1018.4 1005.7
01 23.06 З 2-4
{4}
50 км ясно +10.8 +6.4 74 +10 +10 1018.5 1005.8
02 23.06 З 2 50 км ясно +11.2 +6.5 73 +10 +10 1018.7 1006.0
03 23.06 З 3-6
{8}
50 км ясно +13.5 +6.6 63 +12 +13 1019.0 1006.4
04 23.06 З 4 50 км ясно +14.5 +6.7 59 +13 +15 1019.2 1006.7
05 23.06 З 3 35 км ясно +15.2 +6.4 56 +15 +18 1019.5 1007.0
06 23.06 СЗ 3-9
{9}
50 км ясно +16.4 +5.7 49 +16 +22 1019.8 1007.3 +10.7 +17.1
07 23.06 З 4 50 км ясно +17.5 +4.3 42 +17 +24 1019.9 1007.4
08 23.06 З 4 45 км ясно +18.4 +3.7 38 +18 +26 1020.0 1007.6
09 23.06 З 5-10
{11}
45 км ясно +18.9 +3.7 36 +19 +26 1020.1 1007.8
10 23.06 З 3-11
{11}
50 км ясно +19.4 +3.0 34 +20 +32 1020.2 1007.9
11 23.06 З 4 50 км ясно +20.3 +2.3 30 +21 +30 комфорт 1020.2 1007.9
12 23.06 СЗ 3-11
{13}
45 км 1/1 2000 м
[]
+20.1 +1.1 28 +21 +30 комфорт 1020.4 1008.0
13 23.06 СЗ 3 40 км 5/5 2000 м
[]
+20.9 +1.5 28 +22 +26 комфорт 1020.5 1008.2
14 23.06 З 5 50 км 4/4
[]
+20.7 +2.4 30 +21 +23 комфорт 1020.5 1008.2
15 23.06 СЗ 2-6
{7}
50 км 1/1
[]
+19.9 +1.8 30 +21 +25 комфорт 1020.4 1008.0
16 23.06 СЗ 2-7
{8}
50 км 1/0
[]
+19.7 +2.8 33 +21 +23 комфорт 1020.5 1008.1
17 23.06 СЗ 1-4
{6}
50 км ясно +19.5 +3.4 34 +21 +23 комфорт 1020.5 1008.2
18 23.06 З 1-3
{4}
50 км ясно +18.6 +3.5 37 +20 +20 1020.3 1007.9 +16.4 +21.3
19 23.06 З 1 50 км ясно +18.1 +3.3 37 +19 +19 1020.5 1008.0
20 23.06 ЮЗ 1 50 км 3/3
[]
+16.7 +5.3 47 +18 +18 1020.6 1008.1
21 23.06 З 1-3
{4}
50 км 5/5 2000 м
[]
+16.4 +5.9 50 +17 +17 1020.8 1008.3
22 23.06 З 2 50 км 6/6 2000 м
[]
+15.9 +6.4 53 +16 +16 1020.8 1008.3
23 23.06 З 2-5
{6}
50 км 9/0 2000 м
[]
+16.2 +7.3 56 +16 +16 1021.4 1008.9
00 24.06 Ю 1-2
{6}
50 км 9/9 2000 м
[]
+14.7 +7.5 62 +15 +15 1021.9 1009.3
01 24.06 ЮЗ 1 50 км 6/6 2000 м
[]
+14.1 +7.0 62 +15 +15 1022.0 1009.4
02 24.06 ЮЗ 1-3
{3}
50 км 1/0 2000 м
[]
+12.2 +7.3 72 +12 +13 1022.3 1009.6
03 24.06 ЮЗ 1-3
{5}
50 км ясно +13.8 +7.6 66 +14 +16 1022.7 1010.1
04 24.06 СЗ 1-4
{5}
50 км ясно +15.9 +8.6 62 +17 +20 1022.8 1010.2
05 24.06 С 1-5
{5}
50 км ясно +17.0 +7.8 55 +18 +23 1023.1 1010.6
06 24.06 СЗ 2-5
{7}
50 км ясно +18.0 +6.5 47 +19 +25 1023.4 1011.0 +12.2 +18.8
07 24.06 СЗ 2-6
{8}
50 км ясно +19.1 +5.0 39 +20 +29 1023.6 1011.2
08 24.06 СЗ 3-6
{9}
50 км ясно +19.4 +5.0 39 +20 +30 1023.8 1011.4
09 24.06 СЗ 4-8
{8}
50 км 4/4 1500 м
[]
+19.2 +4.0 37 +20 +25 1024.2 1011.8
10 24.06 СЗ 2 50 км 1/1 1500 м
[]
+20.1 +4.2 35 +21 +34 комфорт 1024.3 1011.9
11 24.06 СЗ 2 50 км 5/1 1500 м
[]
+20.5 +3.3 32 +22 +31 комфорт 1024.5 1012.1
12 24.06 СЗ 2-6
{7}
45 км 5/5 2000 м
[]
+20.9 +4.0 33 +22 +28 комфорт 1024.6 1012.2
13 24.06 С 3-10
{10}
50 км 8/8 2000 м
[]
+19.7 +5.0 38 +21 +24 комфорт 1025.1 1012.7
14 24.06 СЗ 2-7
{8}
50 км 4/0
[]
+20.0 +4.6 36 +21 +24 комфорт 1025.3 1012.9
15 24.06 СЗ 3-9
{10}
50 км 9/9
[]
+20.2 +3.9 34 +21 +21 комфорт 1025.4 1013.0
16 24.06 СЗ 3 50 км ясно +19.4 +5.5 40 +20 +23 1025.6 1013.1
17 24.06 С 1 50 км в посл. час дождь 8/8 2000 м
[]
+18.2 +7.1 48 +19 +20 1025.9 1013.4
18 24.06 С 2-4
{5}
50 км 3/3 2000 м
[]
+18.1 +7.0 48 +19 +19 1026.4 1013.9 +17.8 +21.4
19 24.06 С 2 50 км ясно +17.6 +7.0 50 +18 +18 1026.6 1014.1
20 24.06 штиль 0 50 км ясно +15.2 +7.6 60 +15 +15 1027.2 1014.6
21 24.06 штиль 0-1
{1}
50 км ясно +14.4 +8.3 67 +14 +14 1027.7 1015.0
22 24.06 СЗ 1-2
{2}
50 км ясно +13.5 +8.8 73 +14 +14 1028.2 1015.5
23 24.06 штиль 0 45 км ясно +14.2 +10.7 79 +14 +14 1028.4 1015.7
00 25.06 штиль 0
{1}
50 км ясно +13.4 +11.2 87 +13 +13 1028.4 1015.7
01 25.06 штиль 0 50 км ясно +13.5 +11.7 89 +13 +13 1028.6 1015.9
02 25.06 штиль 0 50 км ясно +13.0 +11.2 89 +12 +13 1028.7 1015.9
03 25.06 штиль 0
{1}
50 км ясно +13.3 +10.4 83 +13 +14 1028.8 1016.0
04 25.06 З 1 50 км ясно +14.9 +10.9 77 +15 +18 1028.8 1016.2
05 25.06 ЮЗ 1 50 км ясно +16.8 +7.6 55 +18 +23 1028.9 1016.3
06 25.06 ЮЗ 1-3
{3}
50 км ясно +17.7 +5.7 45 +19 +27 1028.8 1016.3 +12.5 +18.1
07 25.06 З 2 50 км ясно +18.8 +6.8 46 +20 +29 1028.6 1016.1
08 25.06 З 2-8
{8}
50 км ясно +19.7 +5.3 39 +21 +33 комфорт 1028.1 1015.6
09 25.06 СЗ 2-5
{7}
50 км ясно +19.3 +4.8 38 +20 +34 опасность
простуды
1028.0 1015.5
10 25.06 СЗ 2 45 км 1/1 1500 м
[]
+19.9 +4.3 36 +21 +34 комфорт 1027.5 1015.1
11 25.06 СЗ 2 50 км ясно +20.4 +4.5 35 +22 +35 комфорт 1027.0 1014.6

 

Местоположение метеостанции Лаппеенранта (Финляндия): широта 61.06 долгота 28.21 высота над уровнем моря 103 м.

В архиве по умолчанию представлена погода в Лаппеенранте за последнюю неделю. Архивные данные за месяц целиком и за предыдущие месяцы, начиная с января 2011 года, Вы можете получить, выбрав интересующий диапазон дат из раскрывающегося списка и нажав кнопку "Ввод!".


*Определитесь, кто Вы:
робот инопланетянин человек

Внимание! Время в таблицах - всемирное. Для получения местного времени необходимо прибавить поправку, которая равна 1 ч.

Смотрите также архив погоды в соседних городах и на ближайших метеорологических станциях:

Погода в Лаппеенранта аэропорту (Финляндия) (4 км)
Погода в Хиеккапакке (Финляндия) (21 км)
Погода в Лесогорском (Ленинградская область, Россия) (39 км)
Погода в Выборге (Ленинградская область, Россия) (47 км)
Погода в Пуумале (Финляндия) (51 км)
Погода в Коивуниеми (Финляндия) (66 км)
Погода в Утти Lentoportintie (Финляндия) (71 км)
Погода в Аэропорту Утти (Финляндия) (71 км)
Погода в Париккала Коицанлахти (Финляндия) (79 км)
Погода в Аньяла (Финляндия) (86 км)

Пояснения к столбцам:

Ветер - указаны скорость ветра в м/с - средняя за 10 мин, порывы в срок и между сроками (в фигурных скобках) и направление, откуда дует ветер: С - северный, СВ - северо-восточный, В - восточный, ЮВ - юго-восточный, Ю - южный, ЮЗ - юго-западный, З - западный, СЗ - северо-западный.
Видимость - горизонтальная дальность видимости в метрах или километрах. При видимости от 1 до 10 км при отсутствии осадков обычно наблюдается дымка, при ухудшении видимости до 1 км и менее - туман. В сухую погоду видимость может ухудшаться дымом, пылью или мглою.
Явления - указаны атмосферные явления, наблюдавшиеся в срок или в последний час перед сроком; фигурными скобками обозначены явления, наблюдавшиеся между сроками (за 1-3 часа до срока); квадратными скобками обозначены град или гололедные отложения с указанием их диаметра в мм.
Облачность - указаны через наклонную черту общая и нижняя облачность в баллах и высота нижней границы облаков в метрах; квадратными скобками обозначены формы облаков: Ci - перистые, Cs - перисто-слоистые, Cc - перисто-кучевые, Ac - высококучевые, As - высокослоистые, Sc - слоисто-кучевые, Ns - слоисто-дождевые, Cu - кучевые, Cb - кучево-дождевые. Подробнее классификацию облаков см. в Атласе облаков (PDF).
T - Температура воздуха - температура, измеренная на высоте 2 м над землей.
Td - Температура точки росы - температура, при понижении до которой содержащийся в воздухе водяной пар достигнет насыщения.
f - Относительная влажность воздуха - влажноcть воздуха, измеренная на высоте 2 м над землей.
Te - Эффективная температура - температура, которую ощущает одетый по сезону человек в тени. Характеристика душности погоды. При расчете учитывается влияние влажности воздуха и скорости ветра на теплоощущения человека.
Tes - Эффективная температура на солнце - температура, которую ощущает человек, с поправкой на солнечный нагрев. Характеристика знойности погоды. Зависит от высоты солнца над горизонтом, облачности и скорости ветра. Ночью, в пасмурную погоду, а также при ветре 12 м/с и более поправка равна нулю.
P - Атмосферное давление - приведенное к уровню моря атмосферное давление.
Po - Атмосферное давление - измеренное на уровне метеостанции атмосферное давление.
Tmin - Минимальная температура - минимум температуры воздуха на высоте 2 м над землей.
Tmax - Максимальная температура - максимум температуры воздуха на высоте 2 м над землей.
R - Количество осадков - Количество выпавших осадков за период времени, мм. При наведении курсора мыши на число - период времени, за который выпало указанное количество осадков.
R24 - Количество осадков - Количество выпавших осадков за 24 часа, мм.
S - Снежный покров - Высота снежного покрова, см. При наведении курсора мыши на число - состояние снежного покрова и степень покрытия местности в баллах.